Flag for Austria Past Weather in St. Johann im Pongau, Salzburg, Austria — Yesterday and Last 2 Weeks

Now
70 °F

Passing clouds.


Feels Like: 70 °F
Forecast: 65 / 89 °F
Wind: 7 mph from South

Location: Salzburg-Flughafen

Current Time: Jun 25, 2016 at 12:10:27 AM

Latest Report: Jun 24, 2016 at 11:20 PM


Visibility: N/A

Pressure: 29.98 "Hg (27.94 "Hg at 606m altitude)

Humidity: 73%

Dew Point: 61 °F

Location of St. Johann im PongauLocation

Past Weather in St. Johann im Pongau — Graph

°F

St. Johann im Pongau Temperature Yesterday

Maximum temperature yesterday: 88 °F (at 1:50 PM)
Minimum temperature yesterday: 61 °F (at 5:20 AM)
Average temperature yesterday: 76 °F

High & Low Weather Summary for the Past Weeks

 TemperatureHumidityPressure
High88 °F (Jun 23, 4:20 PM)100% (Jun 10, 2:50 AM)30.30 "Hg (Jun 10, 2:50 AM)
Low52 °F (Jun 11, 2:50 AM)33% (Jun 24, 7:20 PM)29.53 "Hg (Jun 16, 2:20 PM)
Average63 °F78%29.95 "Hg
* Reported Jun 9 10:20 PM — Jun 24 10:50 PM, St. Johann im Pongau, Weather by CustomWeather, © 2016

Note: Actual official high and low records may vary slightly from our data, if they occured in-between our weather recording intervals... More about our weather records

Advertising

St. Johann im Pongau Weather History for the Previous 24 Hours

Scroll right to see more
 ConditionsComfort  
Time TempWeatherWind HumidityBarometerVisibility
10:50 PM
Fri, Jun 24
72 °FClear.5 mph69%29.98 "Hg10 mi
10:20 PM72 °FPassing clouds.6 mph73%29.98 "HgN/A
9:50 PM73 °FPassing clouds.6 mph69%29.98 "HgN/A
9:20 PM75 °FPassing clouds.5 mph65%29.98 "HgN/A
8:50 PM82 °FPassing clouds.3 mph48%29.98 "HgN/A
8:20 PM86 °FPassing clouds.3 mph38%29.98 "HgN/A
7:50 PM86 °FPassing clouds.3 mph35%29.98 "HgN/A
7:20 PM88 °FPassing clouds.7 mph33%29.98 "HgN/A
6:50 PM88 °FPassing clouds.7 mph35%29.98 "HgN/A
6:20 PM88 °FPassing clouds.8 mph38%29.98 "HgN/A
5:50 PM88 °FPassing clouds.7 mph35%29.98 "HgN/A
5:20 PM88 °FPassing clouds.7 mph40%30.01 "HgN/A
4:50 PM88 °FPassing clouds.7 mph40%30.01 "HgN/A
4:20 PM88 °FPassing clouds.6 mph43%30.01 "HgN/A
3:50 PM88 °FPassing clouds.7 mph38%30.04 "HgN/A
3:20 PM88 °FPassing clouds.9 mph40%30.04 "HgN/A
2:50 PM88 °FPassing clouds.10 mph43%30.04 "HgN/A
2:20 PM86 °FPassing clouds.9 mph43%30.04 "HgN/A
1:50 PM88 °FPassing clouds.9 mph43%30.04 "HgN/A
1:20 PM84 °FPassing clouds.5 mph55%30.07 "HgN/A
12:50 PM84 °FPassing clouds.6 mph51%30.07 "HgN/A
12:20 PM84 °FPassing clouds.3 mph51%30.07 "HgN/A
11:50 AM82 °FPassing clouds.5 mph55%30.07 "HgN/A
11:20 AM82 °FPassing clouds.1 mph51%30.09 "HgN/A
10:50 AM81 °FPassing clouds.1 mph58%30.09 "HgN/A
10:20 AM81 °FSunny.2 mph58%30.09 "Hg10 mi
9:50 AM77 °FSunny.2 mph65%30.09 "Hg10 mi
9:20 AM77 °FSunny.1 mph61%30.09 "Hg10 mi
8:50 AM77 °FSunny.1 mph65%30.09 "Hg10 mi
8:20 AM73 °FSunny.5 mph69%30.09 "Hg10 mi
7:50 AM72 °FSunny.1 mph69%30.09 "Hg10 mi
7:20 AM68 °FSunny.5 mph83%30.09 "Hg10 mi
6:50 AM66 °FSunny.2 mph88%30.09 "Hg10 mi
6:20 AM63 °FSunny.2 mph94%30.09 "HgN/A
5:50 AM61 °FClear.5 mph100%30.09 "HgN/A
5:20 AM61 °FRain. Overcast.1 mph94%30.07 "Hg4 mi
4:50 AM63 °FPassing clouds.2 mph94%30.09 "HgN/A
4:20 AM63 °FMild.1 mph94%30.09 "HgN/A
3:50 AM63 °FMild.1 mph94%30.09 "HgN/A
3:20 AM63 °FMild.3 mph100%30.09 "HgN/A
2:50 AM63 °FPassing clouds.2 mph94%30.09 "HgN/A
2:20 AM64 °FPassing clouds.2 mph88%30.09 "HgN/A
1:50 AM66 °FPassing clouds.2 mph88%30.09 "HgN/A
1:20 AM66 °FMild.3 mph88%30.09 "HgN/A
12:50 AM68 °FMild.5 mph88%30.09 "HgN/A
12:20 AM70 °FMild.2 mph83%30.12 "HgN/A
Weather by CustomWeather, © 2016

See weather overviewHow to use our weather pages